IU1DOF-3 Weather Reports


Display with metric or nautical units.
time (UTC)temp
F
wind
direction
speed
MPH
gust
MPH
rain 1hr
in
rain 24hr
in
rain mn
in
humidity
%
barometer
mb
20260504003453 50 299 0.0 0.0 0.00 0.00 0.00 87 1016.1
20260504002441 50 299 0.0 1.0 0.00 0.00 0.00 88 1015.9
20260504001422 50 299 0.0 0.0 0.00 0.00 0.00 85 1016.2
20260504000358 50 299 0.0 0.0 0.00 0.00 0.00 86 1016.1
20260503235341 51 299 1.0 2.0 0.00 0.00 0.00 85 1016.2
20260503234328 50 299 0.0 0.0 0.00 0.00 0.00 84 1016.3
20260503233302 51 299 0.0 0.0 0.00 0.00 0.00 84 1016.3
20260503232241 51 299 0.0 0.0 0.00 0.00 0.00 84 1016.4
20260503231229 52 299 0.0 0.0 0.00 0.00 0.00 84 1016.4
20260503230207 51 299 0.0 0.0 0.00 0.00 0.00 84 1016.0
20260503225157 52 299 0.0 0.0 0.00 0.00 0.00 85 1016.6
20260503224140 52 299 0.0 0.0 0.00 0.00 0.00 83 1016.7
20260503223125 52 299 0.0 0.0 0.00 0.00 0.00 83 1016.3
20260503222101 52 299 0.0 0.0 0.00 0.00 0.00 83 1016.2
20260503221037 52 299 0.0 0.0 0.00 0.00 0.00 84 1016.5
20260503220015 53 299 0.0 0.0 0.00 0.00 0.00 82 1016.5
20260503214950 52 299 0.0 0.0 0.00 0.00 0.00 82 1016.5
20260503213940 53 299 0.0 0.0 0.00 0.00 0.00 82 1016.4
20260503212918 53 299 0.0 0.0 0.00 0.00 0.00 82 1016.4
20260503211855 53 299 0.0 0.0 0.00 0.00 0.00 82 1016.3
20260503210840 53 299 0.0 0.0 0.00 0.00 0.00 81 1016.5
20260503205822 53 299 0.0 0.0 0.00 0.00 0.00 79 1016.2
20260503204758 53 299 0.0 0.0 0.00 0.00 0.00 79 1016.4
20260503203740 53 299 0.0 0.0 0.00 0.00 0.00 81 1016.4
20260503202725 54 299 0.0 0.0 0.00 0.00 0.00 80 1016.4
20260503201701 54 299 0.0 0.0 0.00 0.00 0.00 80 1016.2
20260503200638 54 299 0.0 0.0 0.00 0.00 0.00 79 1016.0
20260503195614 54 299 0.0 1.0 0.00 0.00 0.00 77 1016.0
20260503194549 55 299 0.0 0.0 0.00 0.00 0.00 77 1015.8
20260503193540 55 299 1.0 1.0 0.00 0.00 0.00 77 1015.9
20260503192517 55 299 2.0 2.0 0.00 0.00 0.00 77 1016.1
20260503191454 55 299 2.0 2.0 0.00 0.00 0.00 75 1015.7
20260503190440 55 299 1.0 2.0 0.00 0.00 0.00 75 1015.9
20260503185421 56 299 1.0 2.0 0.00 0.00 0.00 76 1015.6
20260503184359 56 299 2.0 2.0 0.00 0.00 0.00 75 1015.5
20260503183340 57 299 2.0 2.0 0.00 0.00 0.00 74 1015.5
20260503182326 58 299 2.0 2.0 0.00 0.00 0.00 70 1015.6
20260503181302 58 299 2.0 2.0 0.00 0.00 0.00 67 1015.6
20260503180238 59 299 0.0 0.0 0.00 0.00 0.00 68 1015.4
20260503175214 60 299 1.0 2.0 0.00 0.00 0.00 65 1015.4
20260503174150 60 299 2.0 3.0 0.00 0.00 0.00 63 1015.3
20260503173140 61 299 0.0 0.0 0.00 0.00 0.00 63 1015.5
20260503172118 61 299 0.0 0.0 0.00 0.00 0.00 63 1015.7
20260503171053 61 299 2.0 3.0 0.00 0.00 0.00 63 1015.6
20260503150654 64 299 1.0 2.0 0.00 0.00 0.00 60 1015.5
20260503131318 65 300 4.0 8.0 0.00 0.00 0.00 60 1016.5
20260503130253 64 300 0.0 1.0 0.00 0.00 0.00 62 1016.6
20260503081423 59 300 0.0 0.0 0.00 0.00 0.00 60 1018.0
20260503080358 59 300 0.0 0.0 0.00 0.00 0.00 63 1017.7
20260503072242 57 299 0.0 1.0 0.00 0.00 0.00 65 1018.1
20260503071231 54 300 0.0 0.0 0.00 0.00 0.00 75 1017.9
20260503070206 53 300 0.0 1.0 0.00 0.00 0.00 80 1018.1
20260503055022 51 300 0.0 0.0 0.00 0.00 0.00 77 1018.0
20260503053959 50 300 0.0 0.0 0.00 0.00 0.00 84 1018.1
20260503052950 48 300 0.0 0.0 0.00 0.00 0.00 91 1018.1
20260503051940 47 300 0.0 0.0 0.00 0.00 0.00 89 1018.1
20260503050919 49 300 0.0 0.0 0.00 0.00 0.00 83 1018.2
20260503045854 48 300 0.0 0.0 0.00 0.00 0.00 84 1018.2
20260503044840 47 300 0.0 0.0 0.00 0.00 0.00 88 1018.2
20260503043822 46 300 0.0 1.0 0.00 0.00 0.00 91 1018.1
20260503042758 46 300 0.0 0.0 0.00 0.00 0.00 89 1017.7
20260503041740 47 300 1.0 1.0 0.00 0.00 0.00 87 1018.1
20260503040727 46 300 0.0 1.0 0.00 0.00 0.00 91 1018.0
20260503035702 47 299 0.0 0.0 0.00 0.00 0.00 90 1018.3
20260503034639 48 299 1.0 1.0 0.00 0.00 0.00 88 1017.9
20260503033615 47 299 0.0 0.0 0.00 0.00 0.00 89 1018.2
20260503032550 46 299 0.0 0.0 0.00 0.00 0.00 91 1018.2
20260503031540 47 299 0.0 0.0 0.00 0.00 0.00 90 1018.2
20260503030519 47 299 0.0 0.0 0.00 0.00 0.00 90 1018.3
20260503025454 47 299 2.0 2.0 0.00 0.00 0.00 90 1018.4
20260503024440 47 299 0.0 1.0 0.00 0.00 0.00 89 1018.6
20260503023423 47 299 0.0 1.0 0.00 0.00 0.00 89 1018.5
20260503022358 46 299 0.0 0.0 0.00 0.00 0.00 90 1018.6
20260503021334 46 299 0.0 0.0 0.00 0.00 0.00 92 1018.7
20260503020311 47 299 0.0 0.0 0.00 0.00 0.00 90 1018.8
20260503015305 46 299 2.0 2.0 0.00 0.00 0.00 90 1018.7
20260503014254 46 299 0.0 0.0 0.00 0.00 0.00 91 1018.8
20260503013240 46 299 0.0 0.0 0.00 0.00 0.00 90 1018.8
20260503012223 47 299 0.0 1.0 0.00 0.00 0.00 89 1018.8
20260503011158 47 299 2.0 2.0 0.00 0.00 0.00 89 1019.0
20260503010134 47 299 2.0 2.0 0.00 0.00 0.00 90 1019.1
20260503005111 47 299 1.0 1.0 0.00 0.00 0.00 90 1019.1
20260503004102 47 299 1.0 2.0 0.00 0.00 0.00 91 1018.9